Springfield, MO

4:09 PM CST on December 07, 2019 (GMT -0600)
Springfield-Branson Regional

Weather History for KSGF - October, 2019

Change the Weather History Date:

Monday, October 7, 2019

  Actual Average Record
Temperature  
Mean Temperature 57 °F 60 °F  
Max Temperature 71 °F 72 °F 92 °F (1963)
Min Temperature 43 °F 49 °F 29 °F (2000)
Degree Days  
Heating Degree Days 8 6  
Month to date heating degree days 12 37  
Since 1 July heating degree days 12 92  
Cooling Degree Days 0 1  
Month to date cooling degree days 37 13  
Year to date cooling degree days 1687 1372  
Growing Degree Days 7 (Base 50)    
Moisture  
Dew Point 44 °F    
Average Humidity 66    
Maximum Humidity 100    
Minimum Humidity 31    
Precipitation  
Precipitation 0.00 in 0.12 in 1.46 in (1994)
Month to date precipitation 1.10 0.86  
Year to date precipitation 42.79 35.58  
Snow  
Snow 0.00 in - - ()
Month to date snowfall 0.0  
Since 1 July snowfall 0.0  
Since 1 September snowfall 0.0  
Snow Depth 0.00 in    
Sea Level Pressure  
Sea Level Pressure 30.25 in    
Wind  
Wind Speed 4 mph (North)    
Max Wind Speed 12 mph    
Max Gust Speed 19 mph    
Visibility 7 miles    
Events Fog    
T = Trace of Precipitation, MM = Missing Value Source: NWS Daily Summary

Daily Weather History Graph

Daily Weather History Graph

Search for Another Location

Airport or City:

Astronomy

Oct. 07, 2019 Rise Set
Actual Time 7:14 AM CDT 6:48 PM CDT
Civil Twilight 6:47 AM CDT 7:14 PM CDT
Nautical Twilight 6:17 AM CDT 7:44 PM CDT
Astronomical Twilight 5:47 AM CDT 8:14 PM CDT
Moon 4:01 PM CDT 1:17 AM CDT
Length of Visible Light 12h 26m
Length of Day
11h 34m
Waxing Gibbous, 69% of the Moon is Illuminated
Oct 7
Waxing Gibbous
Oct 13
Full
Oct 21
Last Quarter
Oct 27
New
Nov 4
First Quarter

Hourly Weather History & Observations

Time (CDT) Temp. Windchill Dew Point Humidity Pressure Visibility Wind Dir Wind Speed Gust Speed Precip Events Conditions
12:52 AM 52.0 °F - 48.9 °F 89% 30.25 in 10.0 mi North 9.2 mph - N/A   Clear
1:52 AM 51.1 °F - 48.0 °F 89% 30.25 in 10.0 mi NNE 4.6 mph - N/A   Clear
2:52 AM 50.0 °F - 46.9 °F 89% 30.25 in 10.0 mi North 3.5 mph - N/A   Clear
3:52 AM 46.9 °F - 45.0 °F 93% 30.25 in 10.0 mi North 3.5 mph - N/A   Clear
4:52 AM 46.9 °F - 45.0 °F 93% 30.25 in 9.0 mi NNW 3.5 mph - N/A   Clear
5:47 AM 46.4 °F 44.3 °F 44.6 °F 93% 30.25 in 1.5 mi NNW 4.6 mph - N/A   Clear
5:52 AM 45.0 °F 43.5 °F 44.1 °F 97% 30.26 in 0.8 mi NNW 3.5 mph - N/A   Clear
6:07 AM 46.0 °F - 45.0 °F 96% 30.26 in 2.0 mi Calm Calm - N/A   Clear
6:14 AM 46.0 °F - 44.1 °F 93% 30.26 in 6.0 mi Calm Calm - N/A   Clear
6:52 AM 44.1 °F 41.5 °F 43.0 °F 96% 30.27 in 4.0 mi NNW 4.6 mph - N/A   Clear
6:56 AM 44.1 °F 41.5 °F 43.0 °F 96% 30.26 in 1.8 mi NNW 4.6 mph - N/A   Clear
7:02 AM 44.1 °F 41.5 °F 42.1 °F 93% 30.27 in 1.0 mi NW 4.6 mph - N/A   Mist
7:14 AM 44.1 °F 41.5 °F 42.1 °F 93% 30.27 in 2.0 mi NW 4.6 mph - N/A   Partly Cloudy
7:23 AM 43.0 °F 41.3 °F 42.1 °F 97% 30.27 in 1.0 mi NW 3.5 mph - N/A   Mist
7:30 AM 43.0 °F 41.3 °F 42.1 °F 97% 30.27 in 0.2 mi NW 3.5 mph - N/A Fog Fog
7:39 AM 45.0 °F 43.5 °F 43.0 °F 93% 30.27 in 0.5 mi NNW 3.5 mph - N/A Fog Fog
7:46 AM 46.4 °F 45.2 °F 44.6 °F 93% 30.27 in 2.0 mi NNW 3.5 mph - N/A   Clear
7:52 AM 46.0 °F - 44.1 °F 93% 30.27 in 1.2 mi Calm Calm - N/A   Clear
7:55 AM 46.0 °F - 45.0 °F 96% 30.27 in 10.0 mi Calm Calm - N/A   Clear
8:52 AM 53.1 °F - 48.9 °F 86% 30.29 in 10.0 mi Calm Calm - N/A   Clear
9:52 AM 57.9 °F - 46.9 °F 67% 30.29 in 10.0 mi NNE 8.1 mph - N/A   Clear
10:52 AM 63.0 °F - 46.0 °F 54% 30.30 in 10.0 mi NNE 9.2 mph - N/A   Clear
11:52 AM 66.0 °F - 44.1 °F 45% 30.29 in 10.0 mi NE 8.1 mph - N/A   Clear
12:52 PM 68.0 °F - 41.0 °F 37% 30.28 in 10.0 mi NE 9.2 mph - N/A   Clear
1:52 PM 69.1 °F - 41.0 °F 36% 30.25 in 10.0 mi ENE 8.1 mph - N/A   Clear
2:52 PM 70.0 °F - 41.0 °F 35% 30.22 in 10.0 mi North 8.1 mph - N/A   Clear
3:52 PM 71.1 °F - 39.0 °F 31% 30.21 in 10.0 mi NE 8.1 mph - N/A   Clear
4:52 PM 70.0 °F - 39.0 °F 32% 30.20 in 10.0 mi Variable 3.5 mph - N/A   Clear
5:52 PM 68.0 °F - 39.0 °F 35% 30.19 in 10.0 mi NNE 8.1 mph - N/A   Clear
6:52 PM 64.9 °F - 41.0 °F 42% 30.19 in 10.0 mi NE 3.5 mph - N/A   Clear
7:52 PM 55.9 °F - 45.0 °F 67% 30.20 in 10.0 mi Calm Calm - N/A   Clear
8:52 PM 53.1 °F - 45.0 °F 74% 30.21 in 10.0 mi Calm Calm - N/A   Clear
9:52 PM 51.1 °F - 45.0 °F 80% 30.21 in 10.0 mi Calm Calm - N/A   Clear
10:52 PM 50.0 °F - 44.1 °F 80% 30.20 in 10.0 mi Calm Calm - N/A   Clear
11:52 PM 52.0 °F - 43.0 °F 71% 30.19 in 10.0 mi SSE 3.5 mph - N/A   Clear